Regional Weather Roundup
Issued by NWS Goodland, KS

Home | Current Version | Previous Version | Text Only | Print | Product List | Glossary Off
Versions: 1 2 3 4 5 6 7 8 9 10 11 12 13 14 15 16 17 18 19 20 21 22 23 24 25 26 27 28 29 30 31 32 33 34 35 36 37 38 39 40 41 42 43 44 45 46 47 48 49 50

000
ASUS43 KGLD 211459
RWRGLD

GOODLAND FORECAST AREA HOURLY WEATHER ROUNDUP
NATIONAL WEATHER SERVICE GOODLAND KS
900 AM MDT SUN SEP 21 2014

...OFFICIAL OBSERVATIONS...

CITY           SKY/WX    TMP DP  RH WIND       PRES   REMARKS
GOODLAND KS    CLOUDY    60  46  59 NW5       30.38R
HILL CITY KS   PTSUNNY   66  43  43 N13       30.31R
IMPERIAL NEB   MOSUNNY   64  41  42 NE8       30.37R
MCCOOK NEB     PTSUNNY   65  43  44 NE9       30.34R
AKRON CO       CLOUDY    62  40  44 SE16      30.40S
BURLINGTON CO  CLOUDY    60  43  53 CALM      30.40R
LIMON CO       CLOUDY    58  39  49 SE12      30.44R
$$

...UNOFFICIAL OBSERVATIONS...

CITY           SKY/WX    TMP DP  RH WIND       PRES   REMARKS
COLBY KS       SUNNY     64  45  48 N9        30.36R
GOVE KS          N/A     66  32  28 MISG        N/A
NORTON KS      SUNNY     63  37  39 N9        30.31R
SHARON SPRINGS   N/A     62  48  61 CALM        N/A
WAKEENEY KS      N/A     66  39  36 MISG        N/A
TRENTON NEB      N/A     60  32  34 N7          N/A
KIT CARSON CO    N/A     60  41  50 CALM        N/A
$$



USA.gov is the U.S. government's official web portal to all federal, state and local government web resources and services.